STARLINK-1528 (47620 NORAD) Tracking and Keplerian Element Data

This shows tracking and keplerian element data for the satellite.

Feedback or suggestion? Click here.




ElementValue
Catalog47620
NameSTARLINK-1528
Epoch Orbit183
Epoch Day56.91667824
Epoch Year2021
RAAN53.6696
Inclination53.0488
Eccentricity0.0001131
Argument of Perigee70.065
Mean Anonmoly19.9809
Mean Motion15.79462265
Decay Rate-0.01069077
L11 47620U 21012A 21056.91667824 -.01069077 00000-0 -64135-2 0 9995
L22 47620 53.0488 53.6696 0001131 70.0650 19.9809 15.79462265 1833

Live tracking and technical data element details for STARLINK-1528 (NORAD 47620). STARLINK-1528 can be tracked NOW for your location showing map with azimuth and elevation plus other details from your city location.

Track the satellite on the map from your city or location and see movement details for azimuth, elevation, latitude, longitude, range, height, and movement on the map or in text.







IsCatalogInMostPopularTable: catalog: 47620, numindb: 1
Update: records affected: 1



GetName: 47620 STARLINK-1528

Hit Count: updated at: Fri, 26 Feb 2021 09:50:31 GMT